Location: Fontevrault
(47.1823°N, 0.0493°E)
Time: 16:28:17
(UTC+00:00)

Thor Agena Rocket - Pass Details

Date: 16 June 2021
Orbit: 759 x 808 km, 99.0° (Epoch: 30 July)

Event Time Altitude Azimuth Distance (km) Brightness Sun altitude
Rises 23:27:12 0° 20° (NNE) 3,327 7.9 -19.0°
Reaches altitude 10° 23:29:41 10° 27° (NNE) 2,386 6.8 -19.1°
Maximum altitude 23:34:41 43° 99° (E) 1,108 4.2 -19.2°
Enters shadow 23:36:27 32° 144° (SE) 1,332 4.3 -19.2°
